WZZ5009 EPKK-EYVI

Flight info

Callsign WZZ5009
Flight time 1h 14m
Altitude 35000
Route POBOK M985 KOTEK DCT EVODO DCT OFEDE DCT LIZUP DCT DIMTA
Aircraft A20N/M-SDE1E2E3FGIJ1J4RWXY/LB1

Departure

Time 2026-05-04 14:49
Airport Kraków John Paul II International Airport (EPKK)

Arrival

Time 2026-05-04 16:03
Airport Vilnius International Airport (EYVI)
Time Latitude Longitude Altitude Speed Heading
2026-05-04 14:28 50.07480 19.80140 800 ft 0 kts 167°
2026-05-04 14:45 50.07477 19.80141 799 ft 4 kts 167°
2026-05-04 14:45 50.07432 19.80256 799 ft 16 kts 77°
2026-05-04 14:45 50.07493 19.80384 800 ft 16 kts 21°
2026-05-04 14:45 50.07618 19.80409 800 ft 19 kts 347°
2026-05-04 14:46 50.07746 19.80369 800 ft 12 kts 348°
2026-05-04 14:46 50.07828 19.80341 800 ft 8 kts 347°
2026-05-04 14:46 50.07838 19.80338 800 ft 0 kts 347°
2026-05-04 14:47 50.07867 19.80327 799 ft 18 kts 347°
2026-05-04 14:47 50.07997 19.80216 799 ft 19 kts 263°
2026-05-04 14:47 50.07982 19.79994 799 ft 18 kts 258°
2026-05-04 14:48 50.07973 19.79932 799 ft 27 kts 258°
2026-05-04 14:48 50.07880 19.79253 800 ft 98 kts 258°
2026-05-04 14:48 50.07685 19.77867 803 ft 155 kts 258°
2026-05-04 14:48 50.07435 19.76143 1222 ft 165 kts 258°
2026-05-04 14:49 50.07200 19.74361 1789 ft 171 kts 259°
2026-05-04 14:49 50.06969 19.72475 2468 ft 173 kts 257°
2026-05-04 14:49 50.06705 19.70585 2976 ft 183 kts 259°
2026-05-04 14:49 50.06423 19.68535 3335 ft 199 kts 259°
2026-05-04 14:50 50.06446 19.66273 3670 ft 219 kts 284°
2026-05-04 14:50 50.07218 19.64097 3940 ft 244 kts 315°
2026-05-04 14:50 50.08779 19.62707 4372 ft 266 kts 344°
2026-05-04 14:50 50.10626 19.62084 5109 ft 273 kts 347°
2026-05-04 14:51 50.12517 19.61557 5878 ft 278 kts 355°
2026-05-04 14:51 50.14468 19.62051 6593 ft 289 kts 24°
2026-05-04 14:51 50.16130 19.63837 7355 ft 294 kts 39°
2026-05-04 14:51 50.17679 19.65985 7790 ft 295 kts 41°
2026-05-04 14:52 50.19226 19.68163 7955 ft 297 kts 41°
2026-05-04 14:52 50.20789 19.70337 7955 ft 297 kts 40°
2026-05-04 14:52 50.22349 19.72488 7969 ft 297 kts 40°
2026-05-04 14:52 50.23944 19.74656 8010 ft 300 kts 40°
2026-05-04 14:53 50.25536 19.76816 8583 ft 306 kts 40°
2026-05-04 14:53 50.27159 19.79032 9542 ft 304 kts 40°
2026-05-04 14:53 50.28762 19.81217 10316 ft 308 kts 40°
2026-05-04 14:53 50.30429 19.83492 10769 ft 324 kts 40°
2026-05-04 14:54 50.32177 19.85878 11220 ft 338 kts 40°
2026-05-04 14:54 50.33973 19.88335 11931 ft 343 kts 40°
2026-05-04 14:54 50.35777 19.90808 12673 ft 346 kts 40°
2026-05-04 14:54 50.37602 19.93315 13392 ft 350 kts 40°
2026-05-04 14:55 50.39459 19.95866 14108 ft 354 kts 40°
2026-05-04 14:55 50.41321 19.98426 14810 ft 357 kts 40°
2026-05-04 14:55 50.43223 20.01044 15512 ft 361 kts 39°
2026-05-04 14:55 50.45131 20.03672 16198 ft 364 kts 39°
2026-05-04 14:56 50.47051 20.06318 16868 ft 368 kts 39°
2026-05-04 14:56 50.49005 20.09016 17527 ft 371 kts 39°
2026-05-04 14:56 50.50947 20.11699 18161 ft 374 kts 39°
2026-05-04 14:56 50.52951 20.14473 18796 ft 377 kts 39°
2026-05-04 14:57 50.54946 20.17237 19410 ft 380 kts 38°
2026-05-04 14:57 50.56970 20.19922 20002 ft 382 kts 33°
2026-05-04 14:57 50.59254 20.22151 20601 ft 381 kts 22°
2026-05-04 14:57 50.61740 20.23747 21204 ft 381 kts 15°
2026-05-04 14:58 50.64236 20.25249 21796 ft 384 kts 19°
2026-05-04 14:58 50.66674 20.27072 22372 ft 389 kts 24°
2026-05-04 14:58 50.69053 20.29201 22947 ft 392 kts 26°
2026-05-04 14:58 50.71433 20.31436 23516 ft 395 kts 27°
2026-05-04 14:59 50.73810 20.33694 24065 ft 397 kts 27°
2026-05-04 14:59 50.76220 20.35986 24601 ft 399 kts 27°
2026-05-04 14:59 50.81100 20.40632 25654 ft 403 kts 26°
2026-05-04 15:00 50.83548 20.42964 26156 ft 405 kts 26°
2026-05-04 15:00 50.86079 20.45377 26656 ft 408 kts 26°
2026-05-04 15:00 50.88543 20.47728 27127 ft 409 kts 26°
2026-05-04 15:01 50.93539 20.52500 28028 ft 413 kts 26°
2026-05-04 15:01 50.96056 20.54910 28441 ft 415 kts 26°
2026-05-04 15:01 50.98590 20.57339 28840 ft 417 kts 27°
2026-05-04 15:01 51.01110 20.59758 29214 ft 418 kts 27°
2026-05-04 15:02 51.03617 20.62168 29565 ft 420 kts 27°
2026-05-04 15:02 51.06148 20.64605 29904 ft 422 kts 27°
2026-05-04 15:02 51.08712 20.67085 30228 ft 424 kts 28°
2026-05-04 15:02 51.11203 20.69503 30531 ft 425 kts 27°
2026-05-04 15:03 51.13870 20.72082 30858 ft 426 kts 27°
2026-05-04 15:03 51.16463 20.74589 31165 ft 427 kts 27°
2026-05-04 15:03 51.19024 20.77068 31539 ft 426 kts 27°
2026-05-04 15:03 51.21582 20.79550 31957 ft 424 kts 27°
2026-05-04 15:04 51.24112 20.82008 32358 ft 422 kts 27°
2026-05-04 15:04 51.26678 20.84505 32744 ft 420 kts 27°
2026-05-04 15:04 51.29221 20.86983 33100 ft 419 kts 27°
2026-05-04 15:04 51.31750 20.89448 33428 ft 418 kts 27°
2026-05-04 15:05 51.34241 20.91878 33686 ft 419 kts 27°
2026-05-04 15:05 51.36788 20.94366 33909 ft 420 kts 28°
2026-05-04 15:05 51.39323 20.96845 34126 ft 422 kts 28°
2026-05-04 15:05 51.41897 20.99368 34346 ft 423 kts 28°
2026-05-04 15:06 51.44400 21.01825 34544 ft 424 kts 28°
2026-05-04 15:06 51.47017 21.04397 34738 ft 426 kts 28°
2026-05-04 15:06 51.49395 21.06738 34910 ft 427 kts 28°
2026-05-04 15:07 51.54507 21.11780 34956 ft 429 kts 28°
2026-05-04 15:07 51.59670 21.16889 34962 ft 430 kts 28°
2026-05-04 15:08 51.64867 21.22045 34964 ft 430 kts 28°
2026-05-04 15:08 51.70059 21.27211 34964 ft 430 kts 28°
2026-05-04 15:09 51.75225 21.32362 34963 ft 430 kts 28°
2026-05-04 15:09 51.80351 21.37487 34963 ft 430 kts 28°
2026-05-04 15:10 51.88107 21.45269 34962 ft 430 kts 28°
2026-05-04 15:11 51.95836 21.53055 34956 ft 430 kts 28°
2026-05-04 15:11 52.01057 21.58332 34948 ft 430 kts 28°
2026-05-04 15:12 52.06242 21.63588 34942 ft 430 kts 28°
2026-05-04 15:12 52.11346 21.68790 34941 ft 430 kts 30°
2026-05-04 15:13 52.16491 21.74032 34939 ft 430 kts 29°
2026-05-04 15:13 52.21630 21.79280 34938 ft 431 kts 29°
2026-05-04 15:14 52.26721 21.84495 34938 ft 431 kts 30°
2026-05-04 15:14 52.31873 21.89791 34938 ft 430 kts 29°
2026-05-04 15:15 52.36948 21.95021 34938 ft 431 kts 30°
2026-05-04 15:15 52.42078 22.00323 34937 ft 430 kts 30°
2026-05-04 15:16 52.49738 22.08267 34937 ft 430 kts 30°
2026-05-04 15:17 52.57425 22.16273 34938 ft 430 kts 30°
2026-05-04 15:17 52.65061 22.24258 34939 ft 430 kts 29°
2026-05-04 15:18 52.70183 22.29632 34938 ft 430 kts 30°
2026-05-04 15:19 52.77812 22.37668 34937 ft 430 kts 29°
2026-05-04 15:19 52.85445 22.45740 34936 ft 430 kts 30°
2026-05-04 15:20 52.90549 22.51157 34934 ft 430 kts 30°
2026-05-04 15:20 52.95622 22.56556 34934 ft 430 kts 30°
2026-05-04 15:21 53.00721 22.61999 34934 ft 430 kts 30°
2026-05-04 15:22 53.08360 22.70205 34932 ft 427 kts 30°
2026-05-04 15:22 53.15980 22.78389 34930 ft 426 kts 30°
2026-05-04 15:23 53.20984 22.83783 34932 ft 425 kts 30°
2026-05-04 15:23 53.26061 22.89114 34934 ft 424 kts 27°
2026-05-04 15:24 53.36900 22.96938 34936 ft 419 kts 15°
2026-05-04 15:25 53.42567 22.99940 34936 ft 419 kts 15°
2026-05-04 15:26 53.51018 23.04418 34930 ft 419 kts 15°
2026-05-04 15:26 53.59386 23.08886 34506 ft 418 kts 15°
2026-05-04 15:27 53.62221 23.10404 33495 ft 428 kts 15°
2026-05-04 15:27 53.68040 23.13529 31653 ft 439 kts 15°
2026-05-04 15:28 53.73939 23.16707 30189 ft 439 kts 15°
2026-05-04 15:28 53.76859 23.18284 29640 ft 435 kts 15°
2026-05-04 15:28 53.82632 23.21408 28609 ft 427 kts 15°
2026-05-04 15:29 53.85498 23.22961 28109 ft 423 kts 15°
2026-05-04 15:30 53.96787 23.29100 26157 ft 409 kts 15°
2026-05-04 15:30 54.04283 23.35575 24701 ft 409 kts 51°
2026-05-04 15:31 54.06318 23.44605 23801 ft 406 kts 77°
2026-05-04 15:31 54.06951 23.49293 23358 ft 403 kts 74°
2026-05-04 15:32 54.09922 23.62664 22058 ft 393 kts 64°
2026-05-04 15:32 54.12247 23.71429 21183 ft 388 kts 65°
2026-05-04 15:33 54.14451 23.79816 20345 ft 382 kts 66°
2026-05-04 15:34 54.17695 23.92307 19094 ft 375 kts 66°
2026-05-04 15:34 54.18749 23.96388 18684 ft 372 kts 66°
2026-05-04 15:34 54.20834 24.04484 17871 ft 367 kts 66°
2026-05-04 15:35 54.22899 24.12530 17060 ft 362 kts 66°
2026-05-04 15:35 54.23905 24.16463 16664 ft 359 kts 67°
2026-05-04 15:35 54.24923 24.20450 16260 ft 357 kts 67°
2026-05-04 15:36 54.26912 24.28260 15470 ft 352 kts 66°
2026-05-04 15:36 54.28167 24.31876 15024 ft 352 kts 46°
2026-05-04 15:36 54.30141 24.34323 14621 ft 348 kts 21°
2026-05-04 15:37 54.32458 24.35463 14248 ft 344 kts 11°
2026-05-04 15:37 54.34813 24.36302 13864 ft 342 kts 10°
2026-05-04 15:37 54.37165 24.37139 13478 ft 339 kts 11°
2026-05-04 15:37 54.39475 24.38002 13100 ft 337 kts 12°
2026-05-04 15:38 54.41777 24.38892 12763 ft 335 kts 12°
2026-05-04 15:38 54.44076 24.39797 12786 ft 339 kts 12°
2026-05-04 15:38 54.46402 24.40718 12812 ft 340 kts 12°
2026-05-04 15:38 54.48743 24.41647 12835 ft 340 kts 12°
2026-05-04 15:39 54.51058 24.42567 12846 ft 340 kts 12°
2026-05-04 15:39 54.53373 24.43488 12851 ft 340 kts 12°
2026-05-04 15:39 54.57965 24.45597 12812 ft 340 kts 25°
2026-05-04 15:40 54.59923 24.47903 12612 ft 340 kts 45°
2026-05-04 15:40 54.61447 24.51039 12192 ft 338 kts 53°
2026-05-04 15:40 54.62851 24.54338 11799 ft 335 kts 54°
2026-05-04 15:40 54.64227 24.57604 11413 ft 333 kts 54°
2026-05-04 15:41 54.65602 24.60824 11029 ft 331 kts 53°
2026-05-04 15:41 54.67007 24.64071 10640 ft 329 kts 53°
2026-05-04 15:41 54.68393 24.67258 10258 ft 327 kts 54°
2026-05-04 15:41 54.69767 24.70417 9929 ft 322 kts 54°
2026-05-04 15:42 54.71089 24.73453 9880 ft 307 kts 54°
2026-05-04 15:42 54.72372 24.76395 9720 ft 299 kts 54°
2026-05-04 15:42 54.73630 24.79284 9381 ft 297 kts 54°
2026-05-04 15:42 54.74887 24.82176 9052 ft 294 kts 54°
2026-05-04 15:43 54.76146 24.85074 8727 ft 292 kts 54°
2026-05-04 15:43 54.77409 24.87986 8401 ft 290 kts 53°
2026-05-04 15:43 54.78621 24.90782 8086 ft 287 kts 53°
2026-05-04 15:43 54.79821 24.93546 7814 ft 283 kts 53°
2026-05-04 15:44 54.81006 24.96279 7575 ft 278 kts 53°
2026-05-04 15:44 54.82171 24.98971 7264 ft 276 kts 53°
2026-05-04 15:44 54.83327 25.01649 7017 ft 271 kts 53°
2026-05-04 15:44 54.84458 25.04272 6747 ft 267 kts 53°
2026-05-04 15:45 54.85560 25.06830 6485 ft 263 kts 53°
2026-05-04 15:45 54.86442 25.09609 6198 ft 259 kts 76°
2026-05-04 15:45 54.86518 25.12686 5911 ft 253 kts 102°
2026-05-04 15:45 54.86120 25.15693 5606 ft 251 kts 106°
2026-05-04 15:46 54.85664 25.18641 5322 ft 248 kts 107°
2026-05-04 15:46 54.85229 25.21525 5085 ft 243 kts 106°
2026-05-04 15:46 54.84813 25.24373 4966 ft 238 kts 106°
2026-05-04 15:46 54.84363 25.27143 4931 ft 238 kts 108°
2026-05-04 15:47 54.83897 25.29922 4797 ft 235 kts 108°
2026-05-04 15:47 54.83433 25.32680 4450 ft 236 kts 108°
2026-05-04 15:47 54.82975 25.35413 4186 ft 231 kts 108°
2026-05-04 15:47 54.82351 25.37959 3783 ft 221 kts 130°
2026-05-04 15:48 54.81186 25.39512 3450 ft 203 kts 161°
2026-05-04 15:48 54.79829 25.39843 3065 ft 190 kts 190°
2026-05-04 15:48 54.77445 25.38356 3037 ft 179 kts 206°
2026-05-04 15:49 54.76289 25.37495 3036 ft 179 kts 206°
2026-05-04 15:49 54.75137 25.36673 2891 ft 171 kts 205°
2026-05-04 15:49 54.74091 25.35954 2668 ft 154 kts 205°
2026-05-04 15:49 54.73121 25.35290 2436 ft 143 kts 205°
2026-05-04 15:50 54.72186 25.34648 2254 ft 142 kts 205°
2026-05-04 15:50 54.71266 25.34015 2075 ft 142 kts 206°
2026-05-04 15:50 54.70342 25.33378 1891 ft 142 kts 206°
2026-05-04 15:50 54.69420 25.32741 1702 ft 141 kts 206°
2026-05-04 15:51 54.68493 25.32101 1512 ft 141 kts 206°
2026-05-04 15:51 54.67581 25.31471 1321 ft 140 kts 206°
2026-05-04 15:51 54.66669 25.30840 1126 ft 140 kts 206°
2026-05-04 15:51 54.65752 25.30205 939 ft 139 kts 206°
2026-05-04 15:52 54.64854 25.29582 771 ft 138 kts 206°
2026-05-04 15:52 54.63965 25.28972 637 ft 131 kts 207°
2026-05-04 15:52 54.63103 25.28382 785 ft 141 kts 206°
2026-05-04 15:52 54.62187 25.27730 1398 ft 140 kts 206°
2026-05-04 15:53 54.61278 25.27083 2004 ft 145 kts 206°
2026-05-04 15:53 54.60287 25.26300 2353 ft 172 kts 216°
2026-05-04 15:53 54.59489 25.24470 2387 ft 214 kts 252°
2026-05-04 15:53 54.59557 25.21811 2134 ft 227 kts 295°
2026-05-04 15:54 54.60668 25.19944 2201 ft 223 kts 336°
2026-05-04 15:54 54.62184 25.19295 2334 ft 227 kts 354°
2026-05-04 15:54 54.63795 25.19467 2380 ft 231 kts
2026-05-04 15:54 54.65406 25.19923 2387 ft 231 kts
2026-05-04 15:55 54.67007 25.20392 2390 ft 231 kts
2026-05-04 15:55 54.68590 25.20825 2391 ft 231 kts
2026-05-04 15:55 54.70192 25.21234 2392 ft 231 kts
2026-05-04 15:55 54.71785 25.21624 2394 ft 230 kts
2026-05-04 15:56 54.73391 25.22007 2392 ft 230 kts
2026-05-04 15:56 54.75015 25.22392 2392 ft 230 kts
2026-05-04 15:56 54.76614 25.22769 2391 ft 230 kts
2026-05-04 15:56 54.78220 25.23148 2391 ft 230 kts
2026-05-04 15:57 54.79831 25.23525 2393 ft 230 kts
2026-05-04 15:57 54.81442 25.23916 2390 ft 231 kts
2026-05-04 15:57 54.82915 25.25045 2379 ft 236 kts 40°
2026-05-04 15:57 54.83853 25.27414 2384 ft 239 kts 72°
2026-05-04 15:58 54.83955 25.30276 2389 ft 239 kts 103°
2026-05-04 15:58 54.83501 25.33090 2396 ft 238 kts 109°
2026-05-04 15:58 54.82983 25.35822 2393 ft 238 kts 110°
2026-05-04 15:58 54.82201 25.38366 2374 ft 234 kts 138°
2026-05-04 15:59 54.80839 25.39759 2383 ft 228 kts 171°
2026-05-04 15:59 54.79279 25.39674 2389 ft 221 kts 201°
2026-05-04 15:59 54.77853 25.38682 2396 ft 219 kts 206°
2026-05-04 15:59 54.76481 25.37642 2419 ft 199 kts 206°
2026-05-04 16:00 54.75265 25.36768 2467 ft 180 kts 205°
2026-05-04 16:00 54.74087 25.35948 2430 ft 179 kts 205°
2026-05-04 16:00 54.72927 25.35151 2396 ft 179 kts 205°
2026-05-04 16:00 54.71799 25.34380 2205 ft 164 kts 205°
2026-05-04 16:01 54.70776 25.33680 1977 ft 149 kts 205°
2026-05-04 16:01 54.69841 25.33035 1767 ft 141 kts 206°
2026-05-04 16:01 54.68915 25.32392 1587 ft 140 kts 206°
2026-05-04 16:01 54.68003 25.31761 1407 ft 140 kts 206°
2026-05-04 16:02 54.67094 25.31133 1220 ft 140 kts 206°
2026-05-04 16:02 54.66167 25.30492 1030 ft 139 kts 206°
2026-05-04 16:02 54.64372 25.29253 658 ft 136 kts 206°
2026-05-04 16:03 54.63544 25.28666 608 ft 111 kts 206°
2026-05-04 16:03 54.62992 25.28279 589 ft 60 kts 201°
2026-05-04 16:03 54.62741 25.28112 587 ft 27 kts 202°
2026-05-04 16:03 54.62500 25.27946 587 ft 34 kts 201°
2026-05-04 16:04 54.62425 25.27822 589 ft 0 kts 287°
2026-05-04 16:04 54.62659 25.27741 590 ft 25 kts 20°
2026-05-04 16:04 54.62801 25.27840 589 ft 21 kts 21°
2026-05-04 16:05 54.62932 25.27931 593 ft 18 kts 21°
2026-05-04 16:05 54.63054 25.28016 593 ft 18 kts 21°
2026-05-04 16:05 54.63284 25.28178 597 ft 15 kts 23°
2026-05-04 16:06 54.63390 25.28251 599 ft 22 kts 20°
2026-05-04 16:06 54.63725 25.28310 611 ft 14 kts 346°
2026-05-04 16:07 54.63843 25.28262 616 ft 11 kts 348°
2026-05-04 16:07 54.63906 25.28325 618 ft 0 kts 75°